Flag for Germany Weather past 2 weeks in Aurich, Lower Saxony, Germany

Now
59 °F

Fog.


Feels Like: 58 °F
Forecast: 54 / 67 °F
Wind: 6 mph from South

Location: Wittmundhaven

Current Time: Sep 30, 2014 at 8:20:51 AM

Latest Report: Sep 30, 2014 at 7:45 AM


Visibility: 2 mi

Pressure: 30.15 "Hg

Humidity: 100%

Dew point: 59 °F

Location of AurichLocation

Historic Weather in Aurich — Graph

°F

Aurich temperature yesterday

Maximum temperature yesterday: 68 °F (at 2:20 PM)
Minimum temperature yesterday: 50 °F (at 5:20 AM)
Average temperature yesterday: 59 °F

Past Weeks' High & Low Weather Summary

 TemperatureHumidityPressure
High75 °F (Sep 17, 3:20 PM)100% (Sep 15, 6:20 AM)30.36 "Hg (Sep 15, 6:20 AM)
Low45 °F (Sep 23, 6:20 AM)49% (Sep 27, 1:20 PM)29.74 "Hg (Sep 24, 5:20 PM)
Average60 °F82%30.04 "Hg
* Reported Sep 15 6:20 AM — Sep 30 6:20 AM, Aurich, Weather by CustomWeather, © 2014

Note: Actual official high and low records may vary slightly from our data, if they occured in-between our weather recording intervals... More about our weather records

Advertising

Aurich weather history for previous 24 hours

 ConditionsComfort  
Time TempWeatherWind HumidityBarometerVisibility
6:20 AM
Sep 30
59 °FCool.6 mph100%30.15 "Hg1 mi
5:20 AM61 °FCool.5 mph94%30.15 "Hg1 mi
4:20 AM61 °FCool.5 mph94%30.15 "Hg1 mi
3:20 AM61 °FCool.5 mph100%30.15 "Hg1 mi
2:20 AM61 °FCool.5 mph100%30.15 "Hg1 mi
1:20 AM61 °FCool.6 mph94%30.15 "Hg1 mi
12:20 AM61 °FCool.6 mph94%30.15 "Hg1 mi
11:20 PM
Sep 29
61 °FCool.5 mph94%30.15 "Hg1 mi
10:20 PM63 °FMild.3 mph88%30.15 "Hg2 mi
10:01 PM63 °FLight rain. Mostly cloudy.3 mph88%30.15 "Hg4 mi
9:20 PM63 °FLight rain. Mostly cloudy.6 mph94%30.15 "Hg4 mi
8:20 PM64 °FLight rain. Passing clouds.6 mph88%30.15 "Hg5 mi
7:20 PM66 °FMostly cloudy.5 mph83%30.15 "Hg6 mi
6:20 PM66 °FMostly cloudy.2 mph83%30.15 "HgN/A
5:20 PM68 °FMostly cloudy.2 mph78%30.15 "HgN/A
4:20 PM68 °FMostly cloudy.3 mph73%30.15 "HgN/A
3:20 PM68 °FMore clouds than sun.5 mph73%30.15 "HgN/A
2:20 PM68 °FMore clouds than sun.5 mph73%30.15 "HgN/A
1:20 PM66 °FPartly sunny.5 mph78%30.15 "Hg5 mi
12:20 PM66 °FBroken clouds.5 mph78%30.15 "Hg5 mi
11:20 AM61 °FFog.6 mph88%30.15 "Hg3 mi
11:03 AM61 °FFog.5 mph88%30.15 "Hg3 mi
10:20 AM57 °FFog.3 mph94%30.15 "Hg2 mi
9:20 AM55 °FFog.2 mph94%30.15 "Hg2 mi
8:20 AM52 °FFog.3 mph94%30.15 "Hg1 mi
8:00 AM52 °FFog.3 mph94%30.15 "Hg1 mi
Weather by CustomWeather, © 2014

See weather overviewHow to use our weather pages